This is the latest recevied weather packets stored in our database for station/object BMCB-28. If no packets are shown the sender has not sent any weather packets the latest 10 day(s).
| Time | Temp. | Humidity | Pressure | Rain* | Wind** | Luminosity | Snow |
|---|---|---|---|---|---|---|---|
| 1778133648 | 6.11° C | 98% | 1016.5 hPa | 0 mm | - | 96 W/m² | - |
| 1778131245 | 5° C | 98% | 1016.3 hPa | 0 mm | - | 30 W/m² | - |
| 1778128247 | 5° C | 99% | 1015.8 hPa | 0.25 mm | - | 6 W/m² | - |
| 1778124649 | 4.44° C | 99% | 1015.4 hPa | 0 mm | - | 0 W/m² | - |
| 1778122847 | 4.44° C | 99% | 1015.2 hPa | 0 mm | - | 0 W/m² | - |
| 1778122248 | 4.44° C | 99% | 1015.1 hPa | 0 mm | - | 0 W/m² | - |
| 1778121054 | 4.44° C | 10% | 1015.1 hPa | 0 mm | - | - | - |
| 1778115045 | 5° C | 10% | 1014.6 hPa | 0 mm | - | - | - |
| 1778113850 | 5° C | 10% | 1014.4 hPa | 0 mm | - | - | - |
| 1778106057 | 5.56° C | 10% | 1013.7 hPa | 0.25 mm | - | - | - |
| 1778104865 | 5.56° C | 10% | 1013.5 hPa | 0 mm | - | - | - |
| 1778099459 | 5.56° C | 10% | 1013 hPa | 0 mm | - | - | - |
| 1778098268 | 5.56° C | 10% | 1012.6 hPa | 0 mm | - | - | - |
| 1778095260 | 5.56° C | 99% | 1012.3 hPa | 0 mm | - | 0 W/m² | - |
| 1778093459 | 5.56° C | 99% | 1012.3 hPa | 0 mm | - | 6 W/m² | - |
| 1778091660 | 6.11° C | 99% | 1012.1 hPa | 0 mm | - | 16 W/m² | - |
| 1778088655 | 5.56° C | 99% | 1011.6 hPa | 0 mm | - | 14 W/m² | - |
| 1778084456 | 6.11° C | 99% | 1011.2 hPa | 0 mm | - | 62 W/m² | - |
| 1778077849 | 7.22° C | 98% | 1010.5 hPa | 0.51 mm | - | 212 W/m² | - |
| 1778076648 | 6.67° C | 98% | 1010.5 hPa | 0.25 mm | - | 134 W/m² | - |
| 1778075450 | 7.22° C | 98% | 1010.4 hPa | 0.51 mm | - | 132 W/m² | - |
| 1778071855 | 7.22° C | 98% | 1010.1 hPa | 0.51 mm | - | 86 W/m² | - |
| 1778068246 | 7.22° C | 97% | 1009.7 hPa | 1.02 mm | - | 98 W/m² | - |
| 1778061646 | 7.78° C | 97% | 1009 hPa | 0.76 mm | - | 218 W/m² | - |
| 1778061051 | 7.78° C | 98% | 1008.9 hPa | 0.51 mm | - | 158 W/m² | - |
* Rain latest hour (hover to see other rain measurements)
** Current wind speed in m/s (hover to see current wind gust speed)